Date String (YYYY-MM-DD hh:mm:ss) UTC,Instrument flags,Ambient pressure (hPa),Sample flow (lpm),Bypass flow (lpm),Sample temperature (°C),Ambient temperature (°C),ASC tube jacket temperature (°C),LED temperature (°C),Box temperature (°C),Sample RH (%),Span deviation,Mass concentration (μg/m³),Mass concentration (μg/m³),Mass concentration (μg/m³)
DateTimeUTC,F1_M11,P_M11,Q1_M11,Q2_M11,T1_M11,T2_M11,T3_M11,T4_M11,T5_M11,U1_M11,ZSPAN_M11,X0_M11,X2_M11,X1_M11
2023-01-18 07:00:00,,0814.3,5.00,0.00,22.9,21.6,00.0,31.5,24.6,14.8,0000.0,0003.70,0003.25,0003.21
2023-01-18 07:01:00,,0814.3,5.00,0.00,22.8,21.5,00.0,31.5,24.6,14.8,0000.0,0003.61,0003.22,0003.18
2023-01-18 07:02:00,,0814.2,5.02,0.00,22.8,21.4,00.0,31.5,24.6,14.8,0000.0,0003.59,0003.21,0003.17
2023-01-18 07:03:00,,0814.3,5.00,0.00,22.8,21.3,00.0,31.5,24.5,14.8,0000.0,0003.49,0003.18,0003.15
2023-01-18 07:04:00,,0814.1,5.00,0.00,22.8,21.2,00.0,31.5,24.5,14.8,0000.0,0003.44,0003.15,0003.13
2023-01-18 07:05:00,,0813.9,5.00,0.00,22.8,21.2,00.0,31.5,24.5,14.8,0000.0,0003.41,0003.13,0003.10
2023-01-18 07:06:00,,0813.9,5.00,0.00,22.8,21.2,00.0,31.5,24.4,14.8,0000.0,0003.39,0003.11,0003.05
2023-01-18 07:07:00,,0813.9,5.00,0.00,22.7,21.1,00.0,31.5,24.4,14.8,0000.0,0003.37,0003.07,0003.00
2023-01-18 07:08:00,,0813.9,5.00,0.00,22.7,21.1,00.0,31.5,24.4,14.8,0000.0,0003.34,0003.03,0002.97
2023-01-18 07:09:00,,0813.9,5.01,0.00,22.7,21.1,00.0,31.5,24.4,14.8,0000.0,0003.29,0002.99,0002.93
2023-01-18 07:10:00,,0814.2,5.01,0.00,22.7,21.1,00.0,31.5,24.4,14.8,0000.0,0003.28,0002.96,0002.90
2023-01-18 07:11:00,,0814.3,5.00,0.00,22.7,21.0,00.0,31.5,24.4,14.8,0000.0,0003.23,0002.93,0002.87
2023-01-18 07:12:00,,0814.3,5.00,0.00,22.7,21.0,00.0,31.5,24.3,14.9,0000.0,0003.19,0002.91,0002.85
2023-01-18 07:13:00,,0814.3,5.01,0.00,22.7,21.6,00.0,31.5,24.5,14.8,0000.0,0003.11,0002.87,0002.82
2023-01-18 07:14:00,,0814.2,5.00,0.00,22.8,22.5,00.0,31.5,24.7,14.8,0000.0,0003.05,0002.82,0002.78
2023-01-18 07:15:00,,0814.3,4.99,0.00,22.8,22.7,00.0,31.5,24.8,14.7,0000.0,0003.02,0002.82,0002.77
2023-01-18 07:16:00,,0814.1,4.99,0.00,22.9,22.4,00.0,31.5,24.7,14.7,0000.0,0003.02,0002.81,0002.77
2023-01-18 07:17:00,,0814.1,5.01,0.00,22.9,22.1,00.0,31.5,24.7,14.6,0000.0,0002.94,0002.78,0002.75
2023-01-18 07:18:00,,0814.1,5.00,0.00,22.8,21.8,00.0,31.5,24.6,14.6,0000.0,0002.90,0002.76,0002.73
2023-01-18 07:19:00,,0813.8,5.00,0.00,22.8,21.6,00.0,31.5,24.6,14.6,0000.0,0002.84,0002.73,0002.71
2023-01-18 07:20:00,,0813.6,5.00,0.00,22.8,21.5,00.0,31.6,24.6,14.6,0000.0,0002.85,0002.74,0002.71
2023-01-18 07:21:00,,0813.6,5.00,0.00,22.8,21.4,00.0,31.6,24.5,14.6,0000.0,0002.79,0002.72,0002.69
2023-01-18 07:22:00,,0813.6,5.02,0.00,22.8,21.3,00.0,31.6,24.5,14.6,0000.0,0002.77,0002.71,0002.68
2023-01-18 07:23:00,,0813.6,5.01,0.00,22.8,21.2,00.0,31.5,24.5,14.6,0000.0,0002.79,0002.71,0002.69
2023-01-18 07:24:00,,0813.6,5.00,0.00,22.8,21.2,00.0,31.5,24.5,14.6,0000.0,0002.78,0002.71,0002.68
2023-01-18 07:25:00,,0813.6,4.99,0.00,22.7,21.1,00.0,31.5,24.5,14.6,0000.0,0002.81,0002.72,0002.68
2023-01-18 07:26:00,,0813.6,4.99,0.00,22.7,21.1,00.0,31.5,24.4,14.6,0000.0,0002.79,0002.69,0002.65
2023-01-18 07:27:00,,0813.6,5.02,0.00,22.7,21.1,00.0,31.5,24.4,14.6,0000.0,0002.75,0002.65,0002.62
2023-01-18 07:28:00,,0813.6,5.00,0.00,22.7,21.1,00.0,31.5,24.4,14.6,0000.0,0002.74,0002.64,0002.61
2023-01-18 07:29:00,,0813.6,4.99,0.00,22.7,21.1,00.0,31.5,24.4,14.6,0000.0,0002.72,0002.63,0002.59
2023-01-18 07:30:00,,0813.6,4.99,0.00,22.7,21.0,00.0,31.5,24.4,14.6,0000.0,0002.70,0002.61,0002.57
2023-01-18 07:31:00,,0813.6,5.04,0.00,22.7,21.0,00.0,31.5,24.4,14.6,0000.0,0002.66,0002.57,0002.55
2023-01-18 07:32:00,,0813.5,5.00,0.00,22.6,21.0,00.0,31.5,24.3,14.6,0000.0,0002.63,0002.55,0002.53
2023-01-18 07:33:00,,0813.5,5.00,0.00,22.7,21.3,00.0,31.4,24.4,14.6,0000.0,0002.62,0002.54,0002.52
2023-01-18 07:34:00,,0813.6,5.01,0.00,22.7,22.2,00.0,31.4,24.6,14.5,0000.0,0002.58,0002.51,0002.49
2023-01-18 07:35:00,,0813.6,4.99,0.00,22.8,22.7,00.0,31.5,24.8,14.4,0000.0,0002.58,0002.50,0002.48
2023-01-18 07:36:00,,0813.5,5.00,0.00,22.9,22.5,00.0,31.5,24.8,14.4,0000.0,0002.53,0002.47,0002.46
2023-01-18 07:37:00,,0813.5,5.00,0.00,22.9,22.2,00.0,31.5,24.7,14.4,0000.0,0002.51,0002.46,0002.45
2023-01-18 07:38:00,,0813.5,5.00,0.00,22.9,21.9,00.0,31.5,24.7,14.4,0000.0,0002.50,0002.46,0002.45
2023-01-18 07:39:00,,0813.5,5.00,0.00,22.8,21.7,00.0,31.5,24.6,14.4,0000.0,0002.48,0002.45,0002.44
2023-01-18 07:40:00,,0813.5,4.99,0.00,22.8,21.5,00.0,31.5,24.6,14.4,0000.0,0002.49,0002.46,0002.44
2023-01-18 07:41:00,,0813.5,5.00,0.00,22.8,21.4,00.0,31.5,24.6,14.4,0000.0,0002.48,0002.45,0002.44
2023-01-18 07:42:00,,0813.5,4.99,0.00,22.8,21.4,00.0,31.5,24.6,14.4,0000.0,0002.47,0002.45,0002.44
2023-01-18 07:43:00,,0813.5,5.00,0.00,22.8,21.3,00.0,31.5,24.5,14.4,0000.0,0002.47,0002.46,0002.44
2023-01-18 07:44:00,,0813.4,4.99,0.00,22.8,21.3,00.0,31.5,24.5,14.4,0000.0,0002.47,0002.47,0002.45
2023-01-18 07:45:00,,0813.4,5.01,0.00,22.8,21.2,00.0,31.5,24.5,14.4,0000.0,0002.48,0002.47,0002.45
2023-01-18 07:46:00,,0813.4,5.01,0.00,22.8,21.2,00.0,31.5,24.5,14.4,0000.0,0002.45,0002.47,0002.46
2023-01-18 07:47:00,,0813.4,4.99,0.00,22.7,21.1,00.0,31.5,24.5,14.4,0000.0,0002.45,0002.47,0002.46
2023-01-18 07:48:00,,0813.4,5.00,0.00,22.7,21.1,00.0,31.5,24.5,14.4,0000.0,0002.43,0002.47,0002.46
2023-01-18 07:49:00,,0813.4,5.03,0.00,22.7,21.1,00.0,31.5,24.4,14.4,0000.0,0002.46,0002.48,0002.47
2023-01-18 07:50:00,,0813.4,4.99,0.00,22.7,21.1,00.0,31.5,24.4,14.4,0000.0,0002.51,0002.51,0002.48
2023-01-18 07:51:00,,0813.3,4.99,0.00,22.7,21.1,00.0,31.5,24.4,14.4,0000.0,0002.50,0002.51,0002.49
2023-01-18 07:52:00,,0813.3,5.01,0.00,22.7,21.1,00.0,31.5,24.4,14.5,0000.0,0002.52,0002.53,0002.51
2023-01-18 07:53:00,,0813.3,4.99,0.00,22.7,21.0,00.0,31.5,24.4,14.5,0000.0,0002.53,0002.53,0002.51
2023-01-18 07:54:00,,0813.3,5.01,0.00,22.6,21.0,00.0,31.5,24.3,14.5,0000.0,0002.52,0002.51,0002.49
2023-01-18 07:55:00,,0813.4,5.00,0.00,22.6,21.0,00.0,31.4,24.3,14.5,0000.0,0002.55,0002.52,0002.49
2023-01-18 07:56:00,,0813.4,5.02,0.00,22.6,21.0,00.0,31.4,24.3,14.5,0000.0,0002.54,0002.51,0002.48
2023-01-18 07:57:00,,0813.3,5.01,0.00,22.6,21.2,00.0,31.4,24.4,14.5,0000.0,0002.54,0002.50,0002.47
2023-01-18 07:58:00,,0813.3,4.99,0.00,22.7,22.1,00.0,31.4,24.6,14.5,0000.0,0002.54,0002.51,0002.47
2023-01-18 07:59:00,,0813.3,5.00,0.00,22.8,23.0,00.0,31.4,24.8,14.4,0000.0,0002.55,0002.51,0002.48
